User: anonymous   Login
Location: Lesignano de� Bagni
(44.6500°N, 10.3000°E)
Time: 20:27:44
(UTC+00:00)
Language:

Okean 1-7 - Orbit

View from above orbital plane
View from above orbital plane
View from above satellite
View from above satellite

Ground track
Ground track

The orbit data is extracted from the following two-line orbital elements,

1 23317U 94066A   21136.90562490  .00000218  00000-0  21048-4 0  9999
2 23317  82.5397 213.2916 0019605   2.6839 357.4480 14.87916029438503
Epoch (UTC): 16 May 2021 21:44:05
Eccentricity: 0.0019605
inclination: 82.5397°
perigee height: 591 km
apogee height: 618 km
right ascension of ascending node: 213.2916°
argument of perigee: 2.6839°
revolutions per day: 14.87916029
mean anomaly at epoch: 357.4480°
orbit number at epoch: 43850

The dashed part of the orbit path shows where the satellite is in the earth's shadow,  

DLR